EDT,Max TemperatureF,Mean TemperatureF,Min TemperatureF,Max Dew PointF,MeanDew PointF,Min DewpointF,Max Humidity, Mean Humidity, Min Humidity, Max Sea Level PressureIn, Mean Sea Level PressureIn, Min Sea Level PressureIn, Max VisibilityMiles, Mean VisibilityMiles, Min VisibilityMiles, Max Wind SpeedMPH, Mean Wind SpeedMPH, Max Gust SpeedMPH,PrecipitationIn, CloudCover, Events, WindDirDegrees
2013-3-1,45,38,32,30,27,24,85,63,46,29.80,29.71,29.63,10,10,10,15,8,24,0.00,4,,316
2013-3-2,41,36,31,24,22,19,63,56,46,29.80,29.76,29.70,10,10,10,13,9,,0.00,8,,328
2013-3-3,37,32,27,19,17,16,64,55,44,29.79,29.75,29.70,10,10,10,17,11,24,0.00,5,,316
2013-3-4,41,34,28,20,17,15,62,52,39,29.94,29.84,29.80,10,10,10,20,13,28,0.00,2,,309
2013-3-5,47,38,30,26,23,20,84,59,40,30.03,29.98,29.94,10,10,7,13,8,,0.00,1,,350
2013-3-6,41,36,31,37,34,28,93,86,75,29.92,29.79,29.71,10,9,4,39,21,51,0.15,8,Rain-Snow,36
2013-3-7,43,38,33,34,31,26,93,78,58,30.08,30.02,29.88,10,10,10,22,17,29,0.00,7,Rain-Snow,345
2013-3-8,38,34,30,34,30,27,93,90,65,30.19,30.04,30.01,10,4,1,20,14,24,0.07,8,Rain-Snow,318
2013-3-9,57,44,29,26,23,18,70,51,22,30.31,30.24,30.18,10,10,10,14,9,20,0.00,0,,331
2013-3-10,54,40,26,35,30,22,94,75,42,30.37,30.32,30.28,10,10,10,13,3,,0.00,2,,92
2013-3-11,60,44,30,48,37,30,100,95,50,30.29,30.22,30.06,10,4,0,13,2,20,0.00,6,Fog,139
2013-3-12,57,50,44,57,52,36,100,92,71,30.02,29.80,29.67,10,9,2,20,12,33,0.47,8,Rain,198
2013-3-13,51,42,34,36,28,20,73,59,36,29.93,29.87,29.81,10,10,10,22,10,31,0.00,3,Rain,290
2013-3-14,41,36,30,20,15,10,64,45,30,29.99,29.95,29.89,10,10,10,26,15,32,0.00,4,,296
2013-3-15,50,38,28,26,18,10,60,43,34,30.02,29.89,29.73,10,10,10,24,13,29,0.00,3,,264
2013-3-16,43,37,32,32,31,22,100,88,50,29.91,29.81,29.74,10,7,1,12,6,,0.08,8,Rain-Snow,44
2013-3-17,39,32,27,32,25,16,100,76,43,30.29,30.06,29.91,10,10,7,18,7,18,0.00,5,,326
2013-3-18,41,34,27,37,31,14,100,84,49,30.36,30.11,29.91,10,6,2,23,12,29,0.38,8,Rain,66
2013-3-19,50,44,37,40,37,18,100,89,38,29.90,29.78,29.70,10,7,2,20,11,25,0.31,7,Rain,8
2013-3-20,48,38,30,22,17,14,55,41,27,29.92,29.86,29.79,10,10,10,21,10,30,0.00,3,,276
2013-3-21,39,33,27,27,18,10,88,55,35,29.79,29.73,29.65,10,10,10,17,10,23,0.00,6,,333
2013-3-22,42,34,27,18,16,11,63,48,36,29.92,29.83,29.77,10,10,10,17,11,25,0.00,3,,288
2013-3-23,48,38,29,20,18,17,63,46,31,29.94,29.90,29.84,10,10,10,17,9,25,0.00,1,,295
2013-3-24,46,38,29,26,20,17,68,49,32,29.96,29.84,29.68,10,10,10,13,8,,0.00,2,,313
2013-3-25,38,35,32,34,32,27,100,93,68,29.69,29.53,29.45,10,5,0,18,11,25,0.35,8,Fog-Rain-Snow,11
2013-3-26,51,42,34,34,31,25,94,65,37,29.88,29.75,29.62,10,10,10,12,8,23,0.00,7,Rain,291
2013-3-27,52,42,33,31,28,23,78,57,34,30.01,29.93,29.88,10,10,10,20,9,26,0.00,3,,296
2013-3-28,49,41,34,29,27,26,76,57,42,30.12,30.03,29.99,10,10,10,16,9,21,0.00,5,,307
2013-3-29,54,45,36,30,27,25,66,50,33,30.17,30.12,30.07,10,10,10,14,7,20,0.00,3,,312
2013-3-30,58,46,34,31,26,20,74,48,24,30.19,30.13,30.08,10,10,10,13,5,16,0.00,1,,286
2013-3-31,56,43,30,50,44,26,100,90,36,30.13,29.79,29.70,10,6,2,16,7,22,0.32,7,Rain,178